Flag for West Bank Weather past 2 weeks in Tulkarm, West Bank

Now
77 °F

Sunny.


Feels Like: 79 °F
Forecast: 68 / 98 °F
Wind: 3 mph from North

Location: Dov Airport

Current Time: May 26, 2015 at 8:43:52 AM

Latest Report: May 26, 2015 at 7:50 AM


Visibility: 10 mi

Pressure: 29.89 "Hg

Humidity: 57%

Dew point: 61 °F

Location of TulkarmLocation

Historic Weather in Tulkarm — Graph

°F

Tulkarm temperature yesterday

Maximum temperature yesterday: 88 °F (at 12:50 PM)
Minimum temperature yesterday: 72 °F (at 5:50 AM)
Average temperature yesterday: 81 °F

Past Weeks' High & Low Weather Summary

 TemperatureHumidityPressure
High104 °F (May 18, 12:50 PM)88% (May 13, 4:55 AM)30.15 "Hg (May 13, 4:55 AM)
Low63 °F (May 16, 5:50 AM)6% (May 18, 12:50 PM)29.68 "Hg (May 19, 4:50 AM)
Average75 °F65%29.89 "Hg
* Reported May 11 6:50 AM — May 26 6:50 AM, Tulkarm, Weather by CustomWeather, © 2015

Note: Actual official high and low records may vary slightly from our data, if they occured in-between our weather recording intervals... More about our weather records

Advertising

Tulkarm weather history for previous 24 hours

 ConditionsComfort  
Time TempWeatherWind HumidityBarometerVisibility
6:50 AM
Tue, May 26
73 °FSunny.1 mph83%29.89 "Hg10 mi
5:50 AM72 °FClear.2 mph88%29.86 "Hg10 mi
10:50 PM
Mon, May 25
75 °FClear.5 mph83%29.80 "Hg10 mi
9:50 PM77 °FClear.5 mph79%29.83 "Hg10 mi
8:50 PM77 °FClear.5 mph79%29.80 "Hg10 mi
7:50 PM79 °FSunny.6 mph74%29.80 "Hg10 mi
6:50 PM81 °FSunny.9 mph66%29.80 "Hg10 mi
5:50 PM82 °FSunny.9 mph62%29.83 "Hg10 mi
4:50 PM86 °FSunny.8 mph43%29.83 "Hg10 mi
3:50 PM86 °FSunny.8 mph43%29.86 "Hg10 mi
2:50 PM82 °FSunny.9 mph66%29.86 "Hg10 mi
1:50 PM86 °FSunny.8 mph38%29.86 "Hg10 mi
12:50 PM88 °FSunny.7 mph35%29.86 "Hg10 mi
11:50 AM86 °FSunny.7 mph35%29.89 "Hg10 mi
10:50 AM84 °FSunny.6 mph31%29.89 "Hg10 mi
9:50 AM82 °FSunny.7 mph45%29.89 "Hg10 mi
8:50 AM82 °FSunny.6 mph40%29.89 "Hg10 mi
Weather by CustomWeather, © 2015

See weather overviewHow to use our weather pages